Lapse_Rate
7.2 6.5 6.5 6.5 6.5 6.5 6.5 6.5 6.5 6.5 6.5 6.5 6.5 6.5 6.5 7.1 7.2 7.0 7.3 7.6 7.9 8.1 8.3 6.9 6.1 6.3 6.6 6.3 6.2 6.1 5.7 5.8 6.8 7.2 7.0 6.2 5.6 6.0 5.7 4.6 2.9 3.1 2.7 2.5
6.5 6.5 6.5 6.5 6.5 6.5 6.5 6.5 6.5 6.5 6.5 6.5 6.5 6.5 6.5 6.7 6.9 7.3 7.3 7.6 7.8 8.1 8.4 7.1 5.8 5.8 6.2 6.3 6.4 6.2 5.9 5.7 5.5 6.3 5.4 6.5 6.3 6.1 5.2 4.4 3.8 2.6 2.7 2.5
6.5 6.5 6.7 6.5 6.5 6.5 6.5 6.5 6.5 6.5 6.5 6.5 6.5 6.5 6.5 6.6 7.2 7.4 7.7 7.8 8.0 8.1 8.2 8.3 7.0 6.6 6.5 6.3 6.0 6.7 6.8 6.3 6.1 5.8 6.6 7.7 8.6 9.2 9.6 9.3 8.1 5.4 4.1 3.4
6.5 6.7 6.5 6.5 6.5 6.5 6.5 6.5 6.5 6.5 6.5 6.5 6.5 6.5 6.5 6.5 6.5 6.7 7.2 7.6 7.9 8.1 8.3 8.4 8.4 8.5 7.1 6.7 6.4 6.4 5.8 5.7 5.4 5.7 5.7 5.8 7.4 7.7 8.2 7.9 7.1 6.7 5.5 5.0
6.5 6.5 6.5 6.5 6.5 6.5 6.5 6.5 6.5 6.5 6.5 6.5 6.5 6.5 6.5 6.5 6.5 6.5 6.9 7.4 7.8 8.0 8.1 8.3 8.6 8.9 9.0 7.8 6.5 6.2 5.2 4.7 4.1 3.9 3.5 2.6 4.1 5.2 4.9 4.8 5.6 6.2 6.0 5.1
6.5 7.2 6.6 6.5 6.5 6.5 6.5 6.5 6.5 6.5 6.5 6.5 6.5 6.5 6.5 6.5 6.5 6.5 6.9 7.4 7.7 8.0 8.0 8.2 8.8 9.0 9.1 9.2 7.8 5.8 5.5 5.3 4.4 3.9 3.7 3.3 3.3 4.4 5.9 6.1 5.5 5.5 6.0 6.6
6.5 6.5 6.6 6.9 6.5 6.5 6.5 6.5 6.5 6.5 6.5 6.5 6.5 6.5 6.5 6.5 6.5 6.6 6.7 7.3 7.8 8.0 7.9 7.1 8.3 8.6 8.9 9.0 8.5 6.3 7.0 6.0 5.0 5.0 5.5 4.9 4.5 4.4 5.6 6.4 6.2 5.7 5.8 6.3
6.5 6.5 6.5 6.5 6.5 6.5 6.5 6.5 6.5 6.5 6.5 6.5 6.5 6.5 6.5 6.5 7.0 7.3 7.4 7.6 7.9 8.0 8.1 7.1 7.9 8.5 8.9 9.0 9.1 7.5 7.4 7.6 7.0 7.0 6.7 5.6 3.9 5.0 7.0 7.3 7.1 6.7 6.3 6.5
6.5 6.5 6.5 6.5 6.5 6.5 6.5 6.5 6.5 6.5 6.5 6.5 6.5 6.5 6.5 6.5 6.5 6.9 7.1 7.4 7.6 7.9 8.2 8.4 8.5 8.6 8.8 9.0 9.1 9.0 8.2 9.3 8.6 7.8 6.6 5.6 6.4 6.8 7.0 6.5 6.2 6.2 5.7 6.1
6.5 6.5 6.5 6.5 6.7 6.6 6.5 6.5 6.5 6.5 6.5 6.5 6.5 6.5 6.5 6.5 6.5 6.5 6.7 7.1 7.7 8.1 8.3 8.4 8.6 8.7 8.8 9.1 9.2 9.2 8.9 9.2 8.2 7.1 5.9 6.2 6.8 6.9 6.3 5.5 5.1 5.2 5.6 6.0
6.5 6.5 6.5 6.5 6.5 6.5 6.5 6.5 6.5 6.5 6.5 6.5 6.5 6.5 6.5 6.5 6.5 6.5 6.8 7.5 7.7 8.0 8.2 8.5 8.7 8.9 9.0 9.2 9.3 9.2 8.0 8.2 6.6 6.8 5.9 6.4 6.6 5.8 5.9 5.8 5.7 6.1 6.6 7.4
6.5 6.5 6.5 6.5 6.5 6.5 6.5 6.5 6.5 6.5 6.5 6.5 6.5 6.5 6.5 6.5 6.7 7.1 7.2 7.6 7.9 8.2 8.4 8.5 8.7 8.9 8.9 8.8 8.9 8.8 7.2 6.8 6.8 7.1 5.7 5.9 6.8 5.8 6.1 6.3 6.4 7.2 7.4 7.9
6.5 6.5 6.5 6.5 6.5 6.5 6.5 6.5 6.5 6.5 6.5 6.5 6.5 6.5 6.5 6.8 6.8 7.2 7.2 7.6 7.9 8.2 8.4 8.6 8.7 8.8 8.9 9.0 8.9 8.1 6.8 7.5 7.8 9.0 4.6 6.5 6.6 6.3 7.0 8.2 8.5 8.7 8.2 7.8
6.6 6.5 6.5 6.5 6.5 6.5 6.5 6.5 6.5 6.5 6.5 6.5 6.5 6.5 6.5 6.5 6.5 6.9 7.3 7.7 7.9 8.1 8.3 8.6 8.7 8.7 8.9 8.9 8.6 8.0 7.9 7.5 7.4 7.0 8.0 8.8 8.8 9.4 9.5 9.6 9.6 9.6 9.7 9.7
6.5 6.5 6.5 6.5 6.5 6.5 6.5 6.5 6.5 6.5 6.5 6.5 6.5 6.5 6.5 6.5 6.5 7.0 7.5 7.7 7.8 8.0 8.3 8.5 8.6 8.7 8.1 6.6 6.6 6.6 6.5 6.5 6.8 8.4 9.1 9.3 9.4 9.6 9.6 9.6 9.6 9.6 9.6 9.7
6.6 6.5 6.5 6.5 6.5 6.5 6.5 6.5 6.5 6.5 6.5 6.5 6.5 6.5 6.5 7.2 7.5 7.2 7.5 7.6 7.7 8.0 8.2 8.4 8.5 8.5 8.5 8.4 8.5 8.6 7.8 7.2 8.5 9.1 9.1 9.3 9.2 9.3 9.3 9.2 9.0 9.0 9.1 9.4
6.5 6.5 6.5 6.5 6.5 6.5 6.5 6.5 6.5 6.5 6.5 6.5 6.5 6.5 6.7 6.5 6.8 7.2 7.4 7.7 7.8 8.0 8.2 8.3 8.4 8.6 8.4 7.9 8.2 8.5 7.7 7.6 7.5 8.7 9.4 9.5 9.6 9.5 9.5 9.6 9.6 9.4 9.1 9.1
6.5 6.5 6.5 6.5 6.5 6.5 6.5 6.5 6.5 6.5 6.5 6.5 6.5 6.5 6.7 6.9 7.6 7.9 8.1 7.9 7.9 8.1 8.2 8.4 8.6 8.8 8.9 9.1 9.0 9.3 9.3 9.3 9.3 9.2 9.3 9.4 9.5 9.5 9.6 9.6 9.6 9.5 9.6 9.5
6.7 6.5 6.5 6.5 6.5 6.5 6.5 6.5 6.5 6.5 6.5 6.5 6.5 6.6 7.1 7.6 7.7 7.6 8.1 8.3 8.3 8.4 8.6 8.7 9.1 9.1 9.3 9.3 9.5 9.5 9.4 9.4 9.4 9.3 9.3 9.5 9.6 9.5 9.5 9.4 9.5 9.6 9.5 9.4
6.5 6.5 6.5 6.5 6.5 6.5 6.5 6.5 7.1 6.8 6.5 6.8 6.9 6.7 6.8 7.3 6.5 6.5 8.1 8.3 8.4 8.6 8.9 9.0 9.2 9.4 9.3 9.4 9.6 9.4 9.3 9.3 9.3 9.4 9.5 9.7 9.7 9.6 9.5 9.6 9.5 9.7 9.7 9.6
6.5 6.5 6.5 6.5 6.5 6.5 6.5 6.8 7.3 6.5 6.5 7.1 7.3 7.1 7.0 6.6 7.2 7.9 8.2 8.4 8.6 8.8 8.9 9.2 9.3 9.2 9.4 9.6 9.6 9.3 9.4 9.3 9.7 9.8 9.7 9.7 9.7 9.6 9.8 9.7 9.7 9.7 9.6 9.5
6.5 6.5 6.5 6.5 6.5 6.5 7.1 6.8 6.5 6.7 7.4 7.5 7.4 7.3 7.1 7.5 7.9 8.1 8.4 8.4 8.6 8.7 9.0 9.2 9.2 9.2 9.5 9.7 9.6 9.4 9.3 9.7 9.8 9.7 9.7 9.7 9.8 9.9 10.0 9.7 9.7 9.7 9.5 9.2
6.5 6.5 6.5 6.5 6.5 6.9 7.5 7.1 7.7 7.8 7.5 7.6 7.2 6.5 6.5 7.8 8.0 8.2 8.3 8.4 8.6 8.8 9.0 9.2 9.2 9.2 9.4 9.6 9.6 9.4 9.5 9.7 9.7 9.6 9.7 9.7 9.8 9.9 10.0 9.6 9.5 10.1 9.6 9.8
6.5 7.0 6.5 6.5 6.6 6.8 7.3 7.9 8.1 8.1 7.5 6.0 6.3 6.1 8.0 8.0 8.2 8.3 8.4 8.5 8.6 8.9 9.0 9.2 9.2 9.1 9.2 9.6 9.6 9.6 9.7 9.7 9.7 9.6 9.6 9.8 9.6 9.6 9.7 9.8 9.7 9.4 9.5 9.4
6.7 6.7 6.5 6.5 6.8 7.2 7.6 7.9 8.0 8.0 7.5 5.4 5.7 7.8 8.3 8.3 8.2 8.4 8.4 8.4 8.6 8.8 9.0 9.2 9.1 9.2 9.3 9.5 9.5 9.7 9.8 9.9 9.7 9.6 9.7 9.7 9.8 9.7 10.0 9.7 9.6 9.4 9.5 9.5
7.2 6.5 6.5 6.5 7.1 7.0 7.2 8.0 7.7 7.4 6.8 5.7 8.1 8.2 8.4 8.4 8.3 8.5 8.5 8.6 8.8 8.7 9.0 9.1 9.2 9.3 9.3 9.4 9.6 9.7 9.9 9.8 9.7 9.5 9.6 9.6 9.5 9.5 9.5 9.6 9.9 9.3 9.5 9.3
Wind_Speed
3 8 8 8 6 7 6 7 11 10 3 6 4 7 5 5 3 1 2 5 7 8 8 8 8 8 8 9 10 10 9 7 5 4 4 4 5 3 4 7 10 9 9 10
7 11 8 6 8 9 9 9 10 8 3 6 4 9 4 3 4 3 1 5 8 9 10 9 10 9 9 9 9 10 10 8 7 5 5 4 4 2 4 7 6 8 8 8
11 5 3 3 5 8 10 12 9 11 7 11 8 12 6 6 6 4 4 2 6 10 12 12 13 13 11 11 10 10 8 8 8 9 6 4 3 1 4 5 5 6 7 7
9 7 8 9 12 10 10 7 12 10 7 8 0 8 5 6 8 6 5 4 6 8 12 13 15 15 14 12 10 8 7 6 6 7 7 8 4 4 6 6 6 8 6 6
4 6 6 7 4 8 5 1 5 7 10 10 12 7 7 9 7 7 5 4 4 7 11 13 15 15 15 13 11 10 8 7 5 4 6 5 5 3 3 4 6 8 8 7
14 3 7 9 4 8 2 10 6 6 8 11 15 14 10 6 9 8 4 2 4 8 9 11 12 14 15 13 12 10 11 7 7 5 5 7 5 2 4 5 6 6 6 6
6 11 10 5 12 14 11 10 7 7 6 10 5 6 11 7 8 7 5 6 3 5 7 9 13 15 17 16 15 12 10 8 6 5 4 4 3 2 6 7 6 8 7 6
3 5 1 1 3 4 3 7 7 10 11 11 7 7 3 4 8 4 1 2 4 5 3 7 11 13 16 17 15 14 11 10 9 7 4 5 5 4 5 6 7 7 7 8
3 3 3 5 1 4 4 3 5 7 3 7 10 5 9 7 5 5 2 3 7 10 11 9 9 11 14 16 16 14 12 10 8 5 2 5 5 7 7 8 8 8 10 9
1 4 0 2 2 6 4 4 3 2 5 11 6 6 9 7 7 5 3 6 12 15 11 10 10 10 11 14 14 13 10 9 8 3 4 6 5 9 9 8 9 11 12 12
2 4 6 3 1 4 1 2 4 5 4 5 6 6 6 7 6 4 6 11 13 10 10 11 10 7 9 10 12 9 9 9 5 6 8 5 9 10 10 10 11 12 13 13
2 1 5 2 4 2 1 3 2 2 4 4 3 8 10 5 3 8 11 11 9 10 10 10 10 8 5 3 4 8 7 6 5 8 6 8 13 12 12 12 13 13 13 13
2 2 4 5 4 5 3 3 4 2 2 6 4 6 5 5 10 7 8 8 7 9 10 11 12 10 7 4 2 2 3 7 13 14 7 12 13 14 14 14 14 14 13 14
3 1 5 7 8 4 5 6 9 10 4 12 16 24 21 17 10 6 5 6 6 8 11 12 12 11 10 9 9 9 10 11 12 12 12 14 13 14 13 14 15 15 15 15
3 4 5 9 10 10 10 12 14 18 19 16 23 22 21 17 6 3 5 7 9 11 12 12 12 12 12 12 12 12 11 12 12 11 11 12 13 14 15 16 16 17 17 16
0 4 1 5 11 12 13 17 19 20 21 20 20 20 9 7 8 6 7 7 9 9 10 10 11 11 11 11 11 10 11 11 11 11 11 12 13 14 14 15 15 17 17 18
3 2 2 6 7 7 11 18 17 13 11 13 14 10 6 3 5 6 6 7 8 7 8 9 10 10 10 11 11 11 11 11 12 12 13 13 14 15 15 16 16 17 17 17
5 5 4 5 8 5 1 1 5 10 15 15 16 14 1 3 8 8 7 6 6 6 7 8 8 9 10 11 11 11 11 11 12 13 14 15 15 16 16 17 17 18 17 18
9 5 3 3 7 13 18 6 4 3 12 8 8 3 6 11 10 8 6 6 6 6 6 6 6 7 8 10 11 10 10 11 11 12 13 14 15 16 16 17 17 17 17 18
4 4 3 2 3 5 2 4 1 2 10 2 2 2 5 8 6 2 5 5 5 5 5 6 7 7 8 10 10 10 11 11 12 13 14 14 14 15 16 16 17 15 16 17
4 3 8 7 6 7 7 3 3 3 2 4 5 6 5 5 2 8 7 5 4 4 5 7 6 7 8 9 9 10 10 11 12 13 14 15 16 17 17 17 17 17 18 18
10 8 5 7 5 10 6 6 5 2 1 5 7 6 4 4 7 8 6 4 2 3 5 6 6 6 7 9 9 11 11 12 14 16 16 17 17 14 14 18 17 18 18 17
7 8 4 8 5 4 5 5 1 3 4 7 9 6 6 7 8 7 5 2 2 4 5 5 7 7 7 9 10 12 12 14 16 17 17 17 17 17 16 16 17 14 16 14
10 2 5 5 8 7 6 7 6 5 5 9 7 6 6 7 8 6 3 2 2 3 5 6 6 7 8 9 10 11 13 15 16 17 17 16 17 17 16 13 13 13 13 13
2 6 7 4 12 15 16 13 8 6 8 8 6 6 7 8 7 5 3 3 2 2 4 5 6 7 9 10 11 12 14 15 15 16 16 16 14 17 16 15 13 14 14 14
7 9 5 5 12 9 13 6 8 11 11 11 11 10 7 7 7 5 4 3 2 3 4 5 7 8 9 10 11 13 14 15 16 15 14 13 13 14 14 14 15 19 20 23
Wind_Direction
200 245 239 293 305 301 278 268 273 277 299 290 289 290 307 23 326 289 192 178 177 174 152 151 142 143 144 145 145 141 131 130 127 117 114 91 76 43 33 20 24 13 7 360
232 251 305 281 273 256 254 266 275 280 133 274 303 293 337 52 66 24 338 181 184 170 177 170 166 165 171 167 163 159 148 135 124 113 99 66 58 42 21 7 11 6 5 4
255 281 282 270 276 249 243 265 278 285 308 260 270 257 180 119 116 95 86 92 173 195 195 189 187 188 184 183 183 176 156 135 118 121 115 93 76 24 1 349 350 357 356 6
260 264 257 260 261 247 259 250 262 277 278 280 79 289 192 152 123 100 103 136 163 194 208 204 200 195 193 190 183 173 154 137 119 108 98 90 49 11 7 344 343 329 331 327
215 205 219 254 278 200 254 81 285 282 267 278 240 262 244 167 166 114 89 99 152 203 207 214 213 208 202 189 187 177 159 146 139 108 120 121 80 355 318 290 324 326 319 318
265 269 262 268 230 211 169 279 249 246 261 251 252 249 275 203 184 134 112 113 180 201 212 225 220 215 208 195 190 181 178 187 175 176 156 123 134 254 324 315 309 307 303 297
227 240 247 261 261 245 249 262 271 247 214 259 55 258 257 112 132 121 104 79 125 183 214 223 223 217 217 203 196 193 200 188 186 181 138 129 156 205 277 291 298 298 287 276
258 164 355 69 290 344 226 259 247 277 282 301 134 255 199 104 137 134 33 3 50 342 269 245 243 231 223 216 207 202 199 195 182 174 189 205 210 239 263 284 298 287 283 277
211 153 128 51 343 319 125 242 2 288 234 266 260 252 252 152 177 191 206 52 359 351 356 317 281 255 238 222 212 206 202 197 184 192 269 257 251 263 276 287 287 284 281 278
126 234 272 111 239 70 342 40 280 301 294 289 272 240 274 191 201 188 109 0 353 360 344 327 303 276 246 227 215 207 200 190 180 228 268 277 274 263 270 275 274 274 277 275
267 254 150 224 22 8 205 123 60 357 5 316 313 307 27 327 1 358 9 358 354 352 348 345 333 299 265 232 223 195 187 179 195 245 252 288 262 255 262 263 267 270 275 272
42 292 240 53 82 23 336 127 115 165 262 220 220 264 288 298 21 10 346 350 353 3 17 18 16 8 342 268 202 199 184 197 269 293 306 280 271 257 258 262 262 264 269 273
51 236 247 182 156 176 237 173 219 199 104 221 256 255 132 110 297 12 355 1 24 27 34 39 40 41 52 86 129 122 197 273 289 306 262 268 263 259 267 279 282 281 276 272
296 266 275 283 315 319 275 233 214 227 227 273 263 284 286 295 328 16 9 47 51 54 46 42 41 41 41 32 6 339 344 334 324 318 303 298 290 290 292 291 285 280 276 273
345 266 274 280 289 288 278 276 253 247 259 268 283 289 299 320 15 93 77 78 73 59 52 45 40 39 34 29 20 15 7 358 349 338 329 321 313 307 307 303 297 292 285 279
272 271 267 271 277 273 271 261 256 264 273 273 280 285 39 94 112 105 88 77 66 53 44 40 40 38 33 28 19 15 9 9 3 2 354 347 340 332 325 320 314 306 301 298
262 215 253 274 313 317 277 250 246 245 262 282 291 326 359 133 126 109 100 73 62 50 44 39 34 33 26 20 12 10 2 1 360 354 348 343 337 330 326 321 317 313 309 304
222 240 262 278 295 249 337 224 268 283 292 283 291 303 19 109 112 94 66 81 72 55 41 35 27 21 19 8 4 355 354 353 352 349 343 341 337 332 328 325 321 317 312 307
239 219 241 254 257 290 286 263 255 256 300 8 333 47 117 137 141 96 74 67 70 61 44 31 21 10 5 1 352 348 352 354 352 350 343 339 337 332 329 325 325 322 319 316
162 202 223 170 246 260 55 100 110 299 269 115 140 200 168 179 238 118 127 89 79 53 35 12 4 356 359 359 351 355 357 354 349 342 333 327 328 324 322 323 322 316 314 311
151 171 215 231 245 269 291 143 174 233 357 146 162 173 175 204 31 109 129 113 73 42 24 356 356 3 3 358 355 353 350 348 338 334 332 333 331 327 322 322 320 320 317 315
180 184 196 217 226 256 133 148 214 52 131 169 158 131 122 136 139 141 134 124 75 16 4 7 5 7 5 355 351 342 348 342 341 338 334 330 327 323 320 321 318 317 315 315
224 214 204 210 218 99 194 263 272 285 283 186 162 158 170 182 164 157 152 114 52 10 12 9 4 355 354 351 344 340 349 346 341 334 329 326 326 321 324 319 320 318 317 317
224 181 225 240 242 268 268 246 250 233 186 163 156 164 201 166 160 158 141 108 26 26 11 1 347 350 345 348 350 354 349 343 336 329 326 326 325 326 316 321 316 317 317 318
291 169 226 258 278 282 272 261 260 182 160 140 140 173 166 155 157 157 144 125 85 28 11 350 345 337 342 347 354 350 344 338 330 326 324 324 325 319 319 317 319 315 314 317
207 228 217 243 263 284 284 320 159 170 172 160 160 147 143 151 154 155 140 131 84 24 354 345 336 336 346 349 349 345 341 337 329 322 325 325 323 322 322 319 315 315 312 315